| time (UTC) | temp C | wind direction | speed KPH | gust KPH | rain 1hr cm | rain 24hr cm | rain mn cm | humidity % | barometer mb |
| 20260902185028 | 11 | 10 | 6.4 | 9.7 | 0.00 | 0.10 | 0.00 | 96 | 1019.2 |
| 20260902184025 | 11 | 0 | 4.8 | 9.7 | 0.00 | 0.10 | 0.00 | 96 | 1019.3 |
| 20260902183037 | 11 | 3 | 6.4 | 8.0 | 0.00 | 0.10 | 0.00 | 96 | 1019.2 |
| 20260902182018 | 11 | 0 | 6.4 | 9.7 | 0.00 | 0.13 | 0.00 | 96 | 1019.3 |
| 20260902181137 | 11 | 15 | 8.0 | 12.9 | 0.00 | 0.13 | 0.00 | 96 | 1019.3 |
| 20260902180112 | 11 | 13 | 8.0 | 12.9 | 0.00 | 0.13 | 0.00 | 96 | 1019.2 |
| 20260902175109 | 11 | 9 | 6.4 | 8.0 | 0.00 | 0.13 | 0.00 | 95 | 1019.2 |
| 20260902174104 | 11 | 352 | 6.4 | 12.9 | 0.00 | 0.15 | 0.00 | 95 | 1019.2 |
| 20260902173102 | 11 | 15 | 6.4 | 9.7 | 0.00 | 0.18 | 0.00 | 95 | 1019.2 |
| 20260902172058 | 11 | 15 | 4.8 | 8.0 | 0.00 | 0.18 | 0.00 | 95 | 1019.3 |
| 20260902171053 | 11 | 21 | 3.2 | 4.8 | 0.00 | 0.18 | 0.00 | 95 | 1019.3 |
| 20260902170111 | 11 | 0 | 4.8 | 8.0 | 0.00 | 0.18 | 0.00 | 95 | 1019.2 |
| 20260902165049 | 11 | 45 | 4.8 | 6.4 | 0.00 | 0.18 | 0.00 | 94 | 1019.1 |
| 20260902164044 | 11 | 335 | 4.8 | 6.4 | 0.00 | 0.18 | 0.00 | 94 | 1019.2 |
| 20260902163039 | 11 | 318 | 4.8 | 8.0 | 0.00 | 0.18 | 0.00 | 94 | 1019.1 |
| 20260902162117 | 11 | 315 | 6.4 | 9.7 | 0.00 | 0.18 | 0.00 | 94 | 1019.1 |
| 20260902161055 | 11 | 315 | 6.4 | 12.9 | 0.00 | 0.18 | 0.00 | 94 | 1019.1 |
| 20260902160029 | 11 | 321 | 6.4 | 12.9 | 0.00 | 0.18 | 0.00 | 94 | 1019.0 |
| 20260902155025 | 11 | 326 | 4.8 | 8.0 | 0.00 | 0.18 | 0.00 | 94 | 1019.0 |
| 20260902153020 | 11 | 338 | 4.8 | 6.4 | 0.00 | 0.18 | 0.00 | 94 | 1019.2 |
| 20260902152116 | 11 | 0 | 3.2 | 6.4 | 0.00 | 0.18 | 0.00 | 94 | 1019.3 |
| 20260902150108 | 11 | 341 | 8.0 | 11.3 | 0.00 | 0.18 | 0.00 | 94 | 1019.3 |
| 20260902145146 | 11 | 344 | 6.4 | 11.3 | 0.00 | 0.18 | 0.00 | 94 | 1019.4 |
| 20260902144100 | 11 | 336 | 8.0 | 11.3 | 0.00 | 0.18 | 0.00 | 94 | 1019.5 |
| 20260902143115 | 11 | 345 | 8.0 | 12.9 | 0.00 | 0.18 | 0.00 | 93 | 1019.6 |
| 20260902142056 | 11 | 339 | 9.7 | 16.1 | 0.00 | 0.18 | 0.00 | 93 | 1019.7 |
| 20260902113056 | 10 | 70 | 3.2 | 4.8 | 0.00 | 0.28 | 0.28 | 91 | 1019.6 |
| 20260902112051 | 10 | 38 | 1.6 | 3.2 | 0.00 | 0.28 | 0.28 | 91 | 1019.5 |
| 20260902111048 | 10 | 37 | 3.2 | 4.8 | 0.00 | 0.28 | 0.28 | 91 | 1019.5 |
| 20260902110045 | 10 | 30 | 1.6 | 3.2 | 0.00 | 0.28 | 0.28 | 91 | 1019.5 |
| 20260902105041 | 10 | 15 | 1.6 | 3.2 | 0.00 | 0.28 | 0.28 | 91 | 1019.3 |
| 20260902104040 | 11 | 0 | 0.0 | 3.2 | 0.00 | 0.28 | 0.28 | 91 | 1019.4 |
| 20260902103055 | 11 | 0 | 0.0 | 3.2 | 0.00 | 0.28 | 0.28 | 90 | 1019.4 |
| 20260902102031 | 11 | 338 | 0.0 | 3.2 | 0.00 | 0.28 | 0.28 | 90 | 1019.3 |
| 20260902101027 | 10 | 0 | 0.0 | 3.2 | 0.00 | 0.28 | 0.28 | 90 | 1019.3 |
| 20260902100023 | 10 | 324 | 0.0 | 3.2 | 0.00 | 0.28 | 0.28 | 90 | 1019.3 |
| 20260902095020 | 11 | 318 | 3.2 | 4.8 | 0.00 | 0.28 | 0.28 | 90 | 1019.2 |
| 20260902094017 | 11 | 353 | 3.2 | 4.8 | 0.00 | 0.28 | 0.28 | 90 | 1019.1 |
| 20260902093114 | 11 | 333 | 4.8 | 6.4 | 0.00 | 0.28 | 0.28 | 90 | 1019.2 |
| 20260902092110 | 11 | 315 | 4.8 | 8.0 | 0.00 | 0.28 | 0.28 | 90 | 1019.2 |
| 20260902091106 | 11 | 305 | 6.4 | 8.0 | 0.00 | 0.28 | 0.28 | 90 | 1019.1 |
| 20260902085059 | 11 | 297 | 4.8 | 8.0 | 0.00 | 0.28 | 0.28 | 89 | 1019.1 |
| 20260902084139 | 11 | 315 | 3.2 | 6.4 | 0.00 | 0.28 | 0.28 | 89 | 1019.0 |
| 20260902083053 | 11 | 309 | 4.8 | 9.7 | 0.00 | 0.28 | 0.28 | 88 | 1019.1 |
| 20260902082049 | 11 | 310 | 4.8 | 6.4 | 0.00 | 0.28 | 0.28 | 87 | 1019.0 |
| 20260902081046 | 11 | 315 | 3.2 | 6.4 | 0.00 | 0.28 | 0.28 | 86 | 1018.9 |
| 20260902080044 | 11 | 318 | 3.2 | 6.4 | 0.00 | 0.28 | 0.28 | 86 | 1018.9 |
| 20260902075038 | 11 | 315 | 3.2 | 4.8 | 0.00 | 0.28 | 0.28 | 86 | 1018.9 |
| 20260902074036 | 11 | 320 | 3.2 | 6.4 | 0.00 | 0.28 | 0.28 | 86 | 1019.0 |
| 20260902073031 | 12 | 307 | 4.8 | 6.4 | 0.00 | 0.28 | 0.28 | 85 | 1019.0 |
| 20260902072029 | 12 | 315 | 6.4 | 11.3 | 0.00 | 0.28 | 0.28 | 85 | 1019.0 |
| 20260902071045 | 12 | 311 | 6.4 | 11.3 | 0.00 | 0.28 | 0.28 | 85 | 1019.0 |
| 20260902070041 | 12 | 315 | 4.8 | 8.0 | 0.00 | 0.28 | 0.28 | 85 | 1019.0 |
| 20260902065019 | 12 | 309 | 3.2 | 8.0 | 0.00 | 0.28 | 0.28 | 85 | 1019.0 |
| 20260902064114 | 12 | 323 | 6.4 | 11.3 | 0.00 | 0.28 | 0.28 | 84 | 1018.9 |
| 20260902063112 | 12 | 326 | 4.8 | 8.0 | 0.00 | 0.28 | 0.28 | 83 | 1018.9 |
| 20260902062108 | 12 | 315 | 6.4 | 12.9 | 0.00 | 0.28 | 0.28 | 82 | 1018.8 |
| 20260902061144 | 12 | 315 | 8.0 | 12.9 | 0.00 | 0.28 | 0.28 | 82 | 1018.7 |
| 20260902055056 | 12 | 275 | 6.4 | 12.9 | 0.00 | 0.28 | 0.28 | 78 | 1018.8 |
| 20260902054053 | 12 | 296 | 8.0 | 14.5 | 0.00 | 0.28 | 0.28 | 77 | 1018.8 |
| 20260902053049 | 12 | 275 | 8.0 | 12.9 | 0.00 | 0.28 | 0.28 | 76 | 1018.7 |
| 20260902052047 | 12 | 295 | 8.0 | 16.1 | 0.00 | 0.28 | 0.28 | 75 | 1018.6 |
| 20260902051043 | 13 | 285 | 6.4 | 14.5 | 0.00 | 0.28 | 0.28 | 73 | 1018.6 |
| 20260902050039 | 13 | 306 | 6.4 | 12.9 | 0.00 | 0.28 | 0.28 | 72 | 1018.7 |
| 20260902045035 | 13 | 275 | 3.2 | 6.4 | 0.00 | 0.28 | 0.28 | 71 | 1018.5 |
| 20260902044033 | 13 | 277 | 6.4 | 12.9 | 0.00 | 0.28 | 0.28 | 70 | 1018.4 |
| 20260902043028 | 13 | 270 | 6.4 | 14.5 | 0.00 | 0.28 | 0.28 | 68 | 1018.4 |
| 20260902042026 | 15 | 254 | 6.4 | 12.9 | 0.00 | 0.28 | 0.28 | 65 | 1018.5 |
| 20260902041022 | 15 | 250 | 4.8 | 12.9 | 0.00 | 0.28 | 0.28 | 65 | 1018.6 |
| 20260902040019 | 15 | 218 | 6.4 | 14.5 | 0.00 | 0.28 | 0.28 | 66 | 1018.7 |
| 20260902035114 | 15 | 284 | 11.3 | 20.9 | 0.00 | 0.28 | 0.28 | 64 | 1018.8 |
| 20260902034111 | 16 | 275 | 9.7 | 16.1 | 0.00 | 0.28 | 0.28 | 67 | 1018.9 |
| 20260902033108 | 15 | 266 | 6.4 | 12.9 | 0.00 | 0.28 | 0.28 | 70 | 1018.9 |
| 20260902032104 | 15 | 268 | 9.7 | 16.1 | 0.00 | 0.28 | 0.28 | 71 | 1018.8 |
| 20260902031142 | 15 | 285 | 8.0 | 19.3 | 0.00 | 0.28 | 0.28 | 71 | 1018.8 |
| 20260902030059 | 15 | 284 | 9.7 | 14.5 | 0.00 | 0.28 | 0.28 | 71 | 1018.8 |
| 20260902025053 | 15 | 303 | 8.0 | 16.1 | 0.00 | 0.28 | 0.28 | 71 | 1018.8 |
| 20260902024050 | 15 | 285 | 8.0 | 17.7 | 0.00 | 0.28 | 0.28 | 72 | 1018.8 |
| 20260902023108 | 15 | 278 | 8.0 | 17.7 | 0.00 | 0.28 | 0.28 | 71 | 1019.0 |
| 20260902022044 | 15 | 240 | 6.4 | 14.5 | 0.00 | 0.28 | 0.28 | 73 | 1018.8 |
| 20260902021041 | 15 | 277 | 9.7 | 17.7 | 0.00 | 0.28 | 0.28 | 71 | 1018.9 |
| 20260902020035 | 15 | 248 | 6.4 | 12.9 | 0.00 | 0.28 | 0.28 | 71 | 1019.1 |
| 20260902015054 | 15 | 242 | 6.4 | 12.9 | 0.00 | 0.28 | 0.28 | 72 | 1019.2 |
| 20260902014030 | 15 | 273 | 9.7 | 16.1 | 0.03 | 0.28 | 0.28 | 71 | 1019.4 |
| 20260902013027 | 16 | 281 | 8.0 | 12.9 | 0.03 | 0.28 | 0.28 | 76 | 1019.5 |
| 20260902012043 | 15 | 253 | 8.0 | 17.7 | 0.05 | 0.28 | 0.28 | 79 | 1019.5 |
| 20260902011018 | 14 | 273 | 6.4 | 12.9 | 0.05 | 0.28 | 0.28 | 76 | 1019.8 |
| 20260902010138 | 14 | 252 | 4.8 | 12.9 | 0.05 | 0.28 | 0.28 | 72 | 1019.9 |
| 20260902005132 | 15 | 236 | 9.7 | 20.9 | 0.05 | 0.28 | 0.28 | 70 | 1020.0 |
| 20260902004110 | 16 | 247 | 11.3 | 17.7 | 0.03 | 0.23 | 0.23 | 69 | 1020.0 |
| 20260902003105 | 16 | 253 | 9.7 | 17.7 | 0.03 | 0.23 | 0.23 | 70 | 1020.2 |
| 20260902002143 | 17 | 253 | 6.4 | 12.9 | 0.00 | 0.20 | 0.20 | 75 | 1020.2 |
| 20260902001120 | 15 | 178 | 9.7 | 14.5 | 0.03 | 0.20 | 0.20 | 77 | 1020.3 |
| 20260902000054 | 15 | 265 | 8.0 | 17.7 | 0.03 | 0.20 | 0.20 | 76 | 1020.6 |
| 20260901235052 | 15 | 236 | 8.0 | 17.7 | 0.03 | 0.20 | 0.20 | 78 | 1020.7 |
| 20260901234047 | 14 | 218 | 8.0 | 14.5 | 0.03 | 0.20 | 0.20 | 76 | 1020.6 |
| 20260901233044 | 13 | 225 | 11.3 | 17.7 | 0.03 | 0.20 | 0.20 | 72 | 1020.6 |
| 20260901232040 | 15 | 269 | 8.0 | 17.7 | 0.03 | 0.20 | 0.20 | 71 | 1020.4 |
| 20260901231039 | 15 | 225 | 11.3 | 17.7 | 0.00 | 0.18 | 0.18 | 71 | 1020.3 |
| 20260901230033 | 15 | 248 | 8.0 | 14.5 | 0.00 | 0.18 | 0.18 | 71 | 1020.4 |
| 20260901225031 | 16 | 242 | 8.0 | 17.7 | 0.00 | 0.18 | 0.18 | 71 | 1020.5 |
| 20260901224048 | 16 | 272 | 8.0 | 17.7 | 0.00 | 0.18 | 0.18 | 75 | 1020.5 |
| 20260901223023 | 15 | 253 | 6.4 | 17.7 | 0.00 | 0.18 | 0.18 | 78 | 1020.4 |
| 20260901222019 | 15 | 254 | 8.0 | 12.9 | 0.00 | 0.18 | 0.18 | 80 | 1020.5 |
| 20260901221016 | 14 | 225 | 9.7 | 16.1 | 0.00 | 0.18 | 0.18 | 83 | 1020.5 |
| 20260901220113 | 14 | 231 | 6.4 | 16.1 | 0.00 | 0.18 | 0.18 | 86 | 1020.6 |
| 20260901215129 | 14 | 220 | 11.3 | 16.1 | 0.00 | 0.18 | 0.18 | 90 | 1020.6 |
| 20260901214105 | 13 | 229 | 8.0 | 14.5 | 0.00 | 0.18 | 0.18 | 92 | 1020.6 |
| 20260901213104 | 14 | 205 | 9.7 | 12.9 | 0.00 | 0.18 | 0.18 | 94 | 1020.6 |
| 20260901212059 | 13 | 221 | 8.0 | 12.9 | 0.00 | 0.18 | 0.18 | 95 | 1020.7 |
| 20260901211057 | 13 | 229 | 6.4 | 12.9 | 0.00 | 0.18 | 0.18 | 94 | 1020.7 |
| 20260901210055 | 13 | 213 | 9.7 | 14.5 | 0.00 | 0.18 | 0.18 | 95 | 1020.8 |
| 20260901205049 | 13 | 198 | 8.0 | 12.9 | 0.00 | 0.18 | 0.18 | 95 | 1020.7 |
| 20260901204045 | -17 | 0.0 | 0.0 | 0.00 | 0.18 | 0.18 | 1020.6 | ||
| 20260901203102 | -17 | 0.0 | 0.0 | 0.00 | 0.18 | 0.18 | 1020.4 | ||
| 20260901202038 | 11 | 180 | 6.4 | 8.0 | 0.00 | 0.18 | 0.18 | 96 | 1020.4 |
| 20260901201034 | 11 | 185 | 6.4 | 11.3 | 0.00 | 0.18 | 0.18 | 96 | 1020.3 |
| 20260901200032 | 11 | 180 | 4.8 | 6.4 | 0.00 | 0.18 | 0.18 | 95 | 1020.4 |
| 20260901195030 | 10 | 211 | 8.0 | 24.1 | 0.00 | 0.18 | 0.18 | 95 | 1020.4 |
| 20260901194024 | 10 | 112 | 1.6 | 4.8 | 0.00 | 0.18 | 0.18 | 95 | 1020.2 |
| 20260901193022 | 10 | 93 | 1.6 | 3.2 | 0.00 | 0.18 | 0.18 | 94 | 1020.0 |
| 20260901192018 | 10 | 153 | 0.0 | 3.2 | 0.03 | 0.18 | 0.18 | 94 | 1020.0 |
| 20260901191114 | 10 | 210 | 1.6 | 4.8 | 0.03 | 0.18 | 0.18 | 94 | 1020.0 |
| 20260901190113 | 10 | 217 | 0.0 | 3.2 | 0.03 | 0.18 | 0.18 | 94 | 1019.9 |